Register Class Description Days Times Gender Openings Class Starts Session Tuition
Waitlist Daisy Jazz   Mon 4:30pm-5:00pm All 0 09/05/2023 2023-2024 40.00
Register Junior Ballet   Mon 5:00pm-5:45pm All 1 09/05/2023 2023-2024 45.00
Register Teen/Senior Ballet/Pointe   Mon 5:00pm-6:15pm All 1 09/05/2023 2023-2024 45.00
Waitlist Junior Tap Technique   Mon 5:45pm-6:15pm All 0 09/05/2023 2023-2024 45.00
Register Large Group Tap   Mon 6:30pm-7:00pm All 5 09/05/2023 2023-2024 45.00
Register Musical Theater Line   Mon 7:00pm-7:30pm All 2 09/05/2023 2023-2024 45.00
Register Junior Lyrical   Mon 7:30pm-8:00pm All 2 09/05/2023 2023-2024 45.00
Waitlist Olivia Tap   Mon 7:30pm-8:00pm All 0 09/05/2023 2023-2024 40.00
Register Teen/Senior Leaps and Turns   Mon 7:30pm-8:00pm All 1 09/05/2023 2023-2024 45.00
Waitlist Junior Jazz   Mon 8:00pm-8:30pm All 0 09/05/2023 2023-2024 45.00
Waitlist Alex & Avari Tap   Mon 8:00pm-8:30pm All 0 09/05/2023 2023-2024 30.00
Waitlist Alex Tap   Mon 8:30pm-9:00pm All 0 09/05/2023 2023-2024 40.00
Waitlist Kendal & Julia Jazz   Mon 8:30pm-9:00pm All 0 09/05/2023 2023-2024 30.00
Register Jr (novice) Ballet   Tue 5:00pm-5:30pm All 4 09/05/2023 2023-2024 45.00
Register Jr (novice) Jazz   Tue 5:30pm-6:00pm All 4 09/05/2023 2023-2024 45.00
Register Jr (novice) Tap Technique   Tue 6:00pm-6:30pm All 3 09/05/2023 2023-2024 45.00
Register Jr (novice) Tap   Tue 6:30pm-7:00pm All 3 09/05/2023 2023-2024 45.00
Waitlist Grace Contemporary   Tue 7:00pm-7:30pm All 0 09/05/2023 2023-2024 40.00
Waitlist Sam & Avari Contemporary   Tue 7:30pm-8:00pm All 0 09/05/2023 2023-2024 30.00
Waitlist Sam Contemporary   Tue 8:00pm-8:30pm All 0 09/05/2023 2023-2024 40.00
Waitlist Sky Tap   Wed 4:30pm-5:00pm All 0 09/05/2023 2023-2024 40.00
Waitlist Kendall & Addy Lyrical   Wed 5:00pm-5:30pm All 0 09/05/2023 2023-2024 30.00
Waitlist Sam, Avari, Grace Jazz   Wed 5:00pm-5:30pm All 0 09/05/2023 2023-2024 30.00
Waitlist Ava C & Avery K Tap   Wed 5:30pm-6:00pm All 0 09/05/2023 2023-2024 30.00
Register Teen/Senior Lyrical   Wed 5:30pm-6:00pm All 2 09/05/2023 2023-2024 45.00
Waitlist Daisy & Vanessa Tap   Wed 6:00pm-6:30pm All 0 09/05/2023 2023-2024 30.00
Waitlist Teen/Senior Jazz   Wed 6:00pm-6:30pm All 0 09/05/2023 2023-2024 45.00
Waitlist Carson & Sky Tap   Wed 6:30pm-7:00pm All 0 09/05/2023 2023-2024 30.00
Register Large Group Contemporary   Wed 6:30pm-7:00pm All 6 09/05/2023 2023-2024 45.00
Register Teen/Senior Tap Technique   Wed 7:00pm-7:45pm All 4 09/05/2023 2023-2024 45.00
Waitlist Addy Contemporary   Wed 7:00pm-7:30pm All 0 09/05/2023 2023-2024 40.00
Waitlist Avery Jazz   Wed 7:30pm-8:00pm All 0 09/05/2023 2023-2024 40.00
Register Teen/Senior Tap   Wed 7:45pm-8:15pm All 4 09/05/2023 2023-2024 45.00
Waitlist Avari Tap   Wed 8:15pm-8:45pm All 0 09/05/2023 2023-2024 40.00
Waitlist Sam & Grace Contemporary   Wed 8:15pm-8:45pm All 0 09/05/2023 2023-2024 30.00
Register Junior Ballet   Thu 5:00pm-5:45pm All 1 09/05/2023 2023-2024 45.00
Register Teen/Senior Ballet   Thu 5:45pm-6:30pm All 1 09/05/2023 2023-2024 45.00
Waitlist Cate Tap   Thu 6:00pm-6:30pm All 0 09/05/2023 2023-2024 40.00
Register Large Group Hip Hop   Thu 6:30pm-7:00pm All 6 09/05/2023 2023-2024 45.00
Waitlist Kate Hip Hop   Thu 7:00pm-7:30pm All 0 09/05/2023 2023-2024 40.00
Waitlist Sam Jazz   Thu 7:00pm-7:30pm All 0 09/05/2023 2023-2024 40.00
Register Junior Leaps and Turns   Thu 7:30pm-8:00pm All 1 09/05/2023 2023-2024 45.00
Register Junior Tap   Thu 8:00pm-8:30pm All 1 09/05/2023 2023-2024 45.00
Waitlist Dew & Grace Hip Hop   Thu 8:00pm-8:30pm All 0 09/05/2023 2023-2024 30.00
Waitlist Dew Hip Hop   Thu 8:30pm-9:00pm All 0 09/05/2023 2023-2024 40.00
Waitlist Olivia Contemporary   Sat 9:00am-9:30am All 0 09/05/2023 2023-2024 40.00
Waitlist Daisy & Olivia Contemporary   Sat 9:30am-10:00am All 0 09/05/2023 2023-2024 30.00
Waitlist Daisy Contemporary   Sat 10:00am-10:30am All 0 09/05/2023 2023-2024 40.00